Semmerzake, Belgium

2:06 AM CET on March 24, 2017 (GMT +0100)
Semmerzake

Weather History for EBMT - August, 2014

Change the Weather History Date:

Tuesday, August 19, 2014

  Actual Average Record
Temperature  
Mean Temperature 58 °F -  
Max Temperature 63 °F 65 °F - ()
Min Temperature 52 °F 52 °F - ()
Degree Days  
Heating Degree Days 7    
Growing Degree Days 8 (Base 50)    
Moisture  
Dew Point 49 °F    
Average Humidity 72    
Maximum Humidity 98    
Minimum Humidity 40    
Precipitation  
Precipitation 0.00 in - - ()
Sea Level Pressure  
Sea Level Pressure 29.89 in    
Wind  
Wind Speed 7 mph ()    
Max Wind Speed 13 mph    
Max Gust Speed -    
Visibility 12.6 miles    
Events Rain    
T = Trace of Precipitation, MM = Missing Value Source: Averaged Metar Reports

Daily Weather History Graph

Daily Weather History Graph

Search for Another Location

Airport or City:

Trip Planner

Search our weather history database for the weather conditions in past years. The results will help you decide how hot, cold, wet, or windy it might be!

Date:

Astronomy

Aug. 19, 2014 Rise Set
Actual Time 6:38 AM CEST 8:58 PM CEST
Civil Twilight 6:01 AM CEST 9:34 PM CEST
Nautical Twilight 5:15 AM CEST 10:19 PM CEST
Astronomical Twilight 4:22 AM CEST 11:12 PM CEST
Moon 1:07 AM CEST (8/19) 4:53 PM CEST (8/19)
Length of Visible Light 15h 32m
Length of Day
14h 20m
Waning Crescent, 31% of the Moon is Illuminated
Aug 19
Waning Crescent
Aug 25
New
Sep 2
First Quarter
Sep 9
Full
Sep 16
Last Quarter

Hourly Weather History & Observations

Time (CEST) Temp. Dew Point Humidity Pressure Visibility Wind Dir Wind Speed Gust Speed Precip Events Conditions
12:00 AM 54 °F 53 °F 93% 29.86 in 17 mi South 4.5 mph - -   Clear
1:00 AM 54 °F 52 °F 90% 29.86 in 19 mi South 8.9 mph - -   Mostly Cloudy
2:00 AM 53 °F 52 °F 94% 29.84 in 19 mi South 13.4 mph - -   Clear
3:00 AM 53 °F 52 °F 94% 29.83 in 9 mi SSW 11.2 mph - -   Clear
4:00 AM 54 °F 53 °F 95% 29.82 in 8 mi SSW 8.9 mph - -   Mostly Cloudy
5:00 AM 55 °F 53 °F 92% 29.83 in 7 mi SSW 6.7 mph - - Rain Light Rain
6:00 AM 54 °F 53 °F 96% 29.81 in 4 mi SSW 8.9 mph - - Rain Light Rain
7:00 AM 54 °F 54 °F 98% 29.83 in 4 mi SW 6.7 mph - -   Mostly Cloudy
8:00 AM 55 °F 54 °F 97% 29.83 in 4 mi 2.2 mph - -   Partly Cloudy
9:00 AM 57 °F 52 °F 79% 29.84 in 9 mi West 6.7 mph - -   Mostly Cloudy
10:00 AM 57 °F 50 °F 70% 29.86 in 14 mi WSW 6.7 mph - -   Scattered Clouds
11:00 AM 58 °F 49 °F 65% 29.87 in 16 mi WSW 8.9 mph - -   Scattered Clouds
12:00 PM 57 °F 48 °F 63% 29.89 in 16 mi WSW 11.2 mph - -   Partly Cloudy
1:00 PM 59 °F 49 °F 62% 29.90 in 16 mi West 8.9 mph - - Rain Light Rain Showers
2:00 PM 59 °F 46 °F 51% 29.91 in 17 mi West 11.2 mph - -   Clear
3:00 PM 60 °F 45 °F 46% 29.92 in 19 mi WNW 13.4 mph - -   Scattered Clouds
4:00 PM 61 °F 46 °F 47% 29.93 in 25 mi WNW 11.2 mph - -   Scattered Clouds
5:00 PM 61 °F 43 °F 40% 29.94 in 16 mi WNW 11.2 mph - -   Scattered Clouds
6:00 PM 62 °F 44 °F 40% 29.94 in 28 mi WNW 8.9 mph - -   Scattered Clouds
8:00 PM 59 °F 44 °F 47% 29.96 in 28 mi WNW 4.5 mph - -   Scattered Clouds
9:00 PM 56 °F 46 °F 60% 29.97 in 28 mi 4.5 mph - -  
10:00 PM 54 °F 44 °F 61% 29.99 in 28 mi SW 4.5 mph - -  
11:00 PM 52 °F 45 °F 71% 30.01 in 28 mi SW 4.5 mph - -   Scattered Clouds